{"data":{"norad_id":53900,"intl_designator":"2022-119Q","name":"STARLINK-5045","alt_names":[],"object_type":"PAYLOAD","status":"ACTIVE","operator":null,"country":"US","launch_date":"2022-09-24","launch_site_code":"AFETR","launch_vehicle":null,"mission":null,"orbit_class":"UNKNOWN","rcs_meters":null,"size_class":null,"mass_kg":null,"dimensions":null,"purposes":["comms"],"wikipedia_slug":null,"has_3d_model":false,"image_url":null,"decayed_at":null,"tle_current":{"epoch":"2026-05-24T23:00:00.752256Z","epoch_age_seconds":78668,"freshness":"FRESH","line1":"1 53900U 22119Q   26144.95834204  .00000074  00000+0  22770-4 0  9996","line2":"2 53900  53.2164 341.3767 0001445  89.7703 270.3455 15.08838203203200","mean_motion":15.08838203,"eccentricity":0.0001445,"inclination_deg":53.2164,"raan_deg":341.3767,"arg_perigee_deg":89.7703,"mean_anomaly_deg":270.3455,"bstar":2.277e-5,"rev_number":20320,"period_min":95.43766834223,"perigee_km":538.74924716975,"apogee_km":540.74851618956,"semimajor_km":6917.8858816797,"source":"CELESTRAK","updated_at":"2026-05-25T13:38:17.584584Z"}}}